{"data":{"norad_id":41847,"epoch":"2026-05-25T02:33:27.083808Z","epoch_age_seconds":55959,"freshness":"FRESH","line1":"1 41847U 16066G   26145.10656347  .00001086  00000+0  16160-3 0  9994","line2":"2 41847  98.3824 221.1050 0341705 199.4078 159.3837 14.44611473501466","mean_motion":14.44611473,"eccentricity":0.0341705,"inclination_deg":98.3824,"raan_deg":221.105,"arg_perigee_deg":199.4078,"mean_anomaly_deg":159.3837,"bstar":0.0001616,"rev_number":50146,"period_min":99.680781089851,"perigee_km":499.95954854768,"apogee_km":986.64585935543,"semimajor_km":7121.4397039516,"source":"CELESTRAK","updated_at":"2026-05-25T13:38:23.287713Z"}}